Weather History for KSDF - March, 2014

Change the Weather History Date:

Sunday, March 16, 2014

  Actual Average Record
Temperature  
Mean Temperature 41 °F 48 °F  
Max Temperature 51 °F 58 °F 84 °F (1945)
Min Temperature 30 °F 38 °F 11 °F (1900)
Degree Days  
Heating Degree Days 24 17  
Month to date heating degree days 358 317  
Since 1 July heating degree days 4012 3558  
Cooling Degree Days 0 0  
Month to date cooling degree days 0 0  
Year to date cooling degree days 0 0  
Moisture  
Dew Point 25 °F    
Average Humidity 65    
Maximum Humidity 85    
Minimum Humidity 45    
Precipitation  
Precipitation 0.19 in 0.13 in 2.72 in (1963)
Month to date precipitation 1.19 2.06  
Year to date precipitation 7.35 8.48  
Snow  
Snow 0.80 in 0.00 in 2.60 in (1936)
Month to date snowfall 3.8 0.9  
Since 1 July snowfall 25.6 11.9  
Snow Depth 0.00 in    
Sea Level Pressure  
Sea Level Pressure 29.98 in    
Wind  
Wind Speed 15 mph (NE)    
Max Wind Speed 25 mph    
Max Gust Speed 36 mph    
Visibility 7 miles    
Events Rain , Snow    
T = Trace of Precipitation, MM = Missing Value Source: NWS Daily Summary

Daily Weather History Graph

Daily Weather History Graph

Search for Another Location

Airport or City:

Trip Planner

Search our weather history database for the weather conditions in past years. The results will help you decide how hot, cold, wet, or windy it might be!

Date:

Astronomy

Mar. 16, 2014 Rise Set
Actual Time 7:52 AM EDT 7:51 PM EDT
Civil Twilight 7:26 AM EDT 8:17 PM EDT
Nautical Twilight 6:55 AM EDT 8:48 PM EDT
Astronomical Twilight 6:24 AM EDT 9:19 PM EDT
Moon 8:07 PM EDT (3/16) 7:36 AM EDT (3/16)
Length of Visible Light 12h 51m
Length of Day
11h 58m
Full, 100% of the Moon is Illuminated
Mar 16
Full
Mar 16
Full
Mar 23
Last Quarter
Mar 30
New
Apr 7
First Quarter

Hourly Weather History & Observations

Time (EDT) Temp. Windchill Dew Point Humidity Pressure Visibility Wind Dir Wind Speed Gust Speed Precip Events Conditions
12:56 AM 48.0 °F - 28.9 °F 48% 30.02 in 10.0 mi North 6.9 mph - N/A   Scattered Clouds
1:56 AM 48.9 °F - 28.0 °F 44% 30.02 in 10.0 mi NNE 8.1 mph - N/A   Scattered Clouds
2:56 AM 46.0 °F 41.9 °F 27.0 °F 47% 30.04 in 10.0 mi NNE 8.1 mph - N/A   Scattered Clouds
3:56 AM 46.0 °F 40.6 °F 28.0 °F 50% 30.03 in 10.0 mi NE 11.5 mph 20.7 mph N/A   Overcast
4:56 AM 44.1 °F 39.0 °F 28.9 °F 55% 30.01 in 10.0 mi NE 9.2 mph - N/A   Overcast
5:56 AM 43.0 °F 34.5 °F 28.0 °F 56% 30.00 in 10.0 mi ENE 19.6 mph 27.6 mph N/A   Overcast
6:56 AM 41.0 °F 33.9 °F 28.0 °F 60% 30.00 in 10.0 mi NE 12.7 mph 23.0 mph N/A   Overcast
7:56 AM 39.9 °F 32.5 °F 26.1 °F 58% 29.99 in 10.0 mi NE 12.7 mph 23.0 mph N/A   Overcast
8:56 AM 39.9 °F 32.9 °F 25.0 °F 55% 30.00 in 10.0 mi NE 11.5 mph 26.5 mph N/A   Overcast
9:56 AM 39.0 °F 30.3 °F 24.1 °F 55% 30.03 in 10.0 mi NE 16.1 mph - N/A   Overcast
10:56 AM 39.0 °F 29.6 °F 21.9 °F 50% 30.03 in 10.0 mi NE 18.4 mph 24.2 mph 0.00 in   Overcast
11:56 AM 37.9 °F 27.9 °F 21.0 °F 51% 30.04 in 10.0 mi NE 19.6 mph 31.1 mph N/A   Overcast
12:56 PM 37.9 °F 27.9 °F 21.9 °F 53% 30.02 in 10.0 mi ENE 19.6 mph 29.9 mph 0.00 in Rain Light Rain
1:50 PM 37.4 °F 29.3 °F 24.8 °F 60% 30.00 in 10.0 mi ENE 12.7 mph 28.8 mph 0.00 in Rain Light Rain
1:56 PM 36.0 °F 26.3 °F 25.0 °F 64% 30.01 in 10.0 mi NE 16.1 mph 25.3 mph 0.00 in Rain Light Rain
2:56 PM 36.0 °F 25.0 °F 26.1 °F 67% 29.96 in 7.0 mi NE 20.7 mph 31.1 mph 0.01 in Rain Light Rain
3:56 PM 35.1 °F 23.5 °F 25.0 °F 67% 29.94 in 6.0 mi NE 21.9 mph 31.1 mph 0.01 in Rain Light Rain
4:56 PM 34.0 °F 22.1 °F 23.0 °F 64% 29.93 in 9.0 mi NE 21.9 mph 29.9 mph 0.02 in Rain Light Rain
5:56 PM 32.0 °F 21.2 °F 25.0 °F 75% 29.93 in 4.0 mi NE 16.1 mph 23.0 mph 0.02 in Rain , Snow Light Rain
6:11 PM 32.0 °F 20.8 °F 24.8 °F 75% 29.93 in 2.5 mi NE 17.3 mph 24.2 mph 0.01 in Rain , Snow Light Rain
6:27 PM 32.0 °F 22.5 °F 26.6 °F 80% 29.94 in 2.5 mi NE 12.7 mph 23.0 mph 0.02 in Rain , Snow Light Freezing Rain
6:56 PM 30.9 °F 19.8 °F 26.1 °F 82% 29.95 in 3.0 mi NE 16.1 mph 21.9 mph 0.05 in Rain , Snow Light Freezing Rain
7:10 PM 30.2 °F 20.2 °F 26.6 °F 86% 29.95 in 1.8 mi NE 12.7 mph 23.0 mph 0.00 in Rain , Snow Light Freezing Rain
7:16 PM 30.2 °F 18.5 °F 26.6 °F 86% 29.95 in 1.0 mi NE 17.3 mph 25.3 mph 0.01 in Snow Light Snow
7:30 PM 30.2 °F 19.8 °F 26.6 °F 86% 29.96 in 1.5 mi NNE 13.8 mph 20.7 mph 0.03 in Snow Light Snow
7:41 PM 30.2 °F 19.3 °F 26.6 °F 86% 29.95 in 0.8 mi NNE 15.0 mph 19.6 mph 0.04 in Snow Light Snow
7:51 PM 30.2 °F 19.3 °F 26.6 °F 86% 29.95 in 1.2 mi NNE 15.0 mph - 0.05 in Snow Light Snow
7:56 PM 30.0 °F 20.0 °F 26.1 °F 85% 29.96 in 2.0 mi NNE 12.7 mph - 0.06 in Snow Light Snow
8:06 PM 30.2 °F 20.2 °F 26.6 °F 86% 29.94 in 1.5 mi NNE 12.7 mph - 0.00 in Snow Light Snow
8:18 PM 30.2 °F 21.3 °F 26.6 °F 86% 29.95 in 2.0 mi NE 10.4 mph - 0.00 in Snow Light Snow
8:50 PM 30.2 °F 21.3 °F 26.6 °F 86% 29.95 in 3.0 mi NE 10.4 mph - 0.01 in Snow Light Snow
8:56 PM 30.0 °F 21.1 °F 26.1 °F 85% 29.96 in 4.0 mi NE 10.4 mph - 0.01 in Snow Light Snow
9:56 PM 30.9 °F 24.3 °F 24.1 °F 76% 29.96 in 10.0 mi NE 6.9 mph - 0.01 in   Overcast
10:56 PM 30.9 °F 21.7 °F 18.0 °F 59% 29.97 in 10.0 mi NNE 11.5 mph - N/A   Overcast
11:56 PM 30.9 °F 21.7 °F 15.1 °F 52% 29.96 in 10.0 mi NNE 11.5 mph - N/A   Overcast